Skip Page Navigation
NASA JPL Caltech
NASA Logo - Jet Propulsion Laboratory + View the NASA Portal
+ Center for Near-Earth Object Studies
JPL Home Earth Solar System Stars & Galaxies Technology
JPL Solar System Dynamics
BODIES ORBITS EPHEMERIDES TOOLS PHYSICAL DATA DISCOVERY FAQ SITE MAP
JPL Small-Body Database Browser
Search: [ help ]  
152092 (2004 RB63)
Classification: Main-belt Asteroid          SPK-ID: 2152092
Ephemeris | Orbit Diagram | Orbital Elements | Mission Design | Physical Parameters | Discovery Circumstances ]

[ hide orbit diagram ]

For accurate long-term ephemerides, please instead use our Horizons system.This orbit viewer was implemented using two-body methods, and hence should not be used for determining accurate long-term trajectories (over several years or decades) or planetary encounter circumstances.


Orbital Elements at Epoch 2459200.5 (2020-Dec-17.0) TDB
Reference: JPL 23 (heliocentric ecliptic J2000)
 Element Value Uncertainty (1-sigma)   Units 
e .07973949615896987 4.2076e-08  
a 2.836443752407976 1.8754e-08 au
q 2.610267156707706 1.2045e-07 au
i 1.088951750558411 4.4428e-06 deg
node 245.4662503447177 0.0002399 deg
peri 69.26348577418558 0.00024185 deg
M 180.502817826322 3.244e-05 deg
tp 2460070.491130429421
(2023-May-05.99113043)
0.00015907 TDB
period 1744.85639920268
4.78
1.7305e-05
4.738e-08
d
yr
n .2063207036203688 2.0463e-09 deg/d
Q 3.062620348108247 2.025e-08 au
  Orbit Determination Parameters
   # obs. used (total)      489  
   data-arc span      9257 days (25.34 yr)  
   first obs. used      1995-11-14  
   last obs. used      2021-03-19  
   planetary ephem.      DE441  
   SB-pert. ephem.      SB441-N16  
   condition code      0  
   norm. resid. RMS      .56226  
   source      ORB  
   producer      Otto Matic  
   solution date      2021-May-04 09:41:18  

Additional Information
 Earth MOID = 1.59464 au 
 Jupiter MOID = 2.14043 au 
 T_jup = 3.306 
[ show covariance matrix ]

Ephemeris | Orbit Diagram | Orbital Elements | Mission Design | Physical Parameters | Discovery Circumstances ]

Physical Parameter Table
Parameter Symbol Value Units Sigma Reference Notes
absolute magnitude H 16.00   n/a MPCxxxxx  

152092 (2004 RB63)          Discovered 2004-Sep-08 by LINEAR at Socorro
Reference: 20070303/Numbers.arcLast Updated: 2007-03-07

Alternate Designations
 2004 RB63 = 1997 AF10 = 1999 PC6 
Ephemeris | Orbit Diagram | Orbital Elements | Mission Design | Physical Parameters | Discovery Circumstances ]
ABOUT SSD CREDITS/AWARDS PRIVACY/COPYRIGHT GLOSSARY LINKS
FirstGov 2021-May-18 09:08 UT
(server date/time)  
NASA Home Page
Site Manager:   Ryan S. Park
Webmaster  Alan B. Chamberlin